CPA749 VHHH-FAOR

Flight info

Callsign CPA749
Flight time N/A
Altitude 34000
Route PECAN2B/25L PECAN V11 IDOSI P901 IKELA/K0930F340 A1 PAPRA/N0500F340 R575 SEKON/N0501F360 R575 SMU W32 DORNA Y3 PUT P627 KALOX/N0491F380 P627 KADAP R348 UNPAP/N0484F400 R348 RUPIG UR348 TNV UB536 EROPA UT446 WIV WIV4A
Aircraft A359/H-SDE2E3GHIJ3J4J5LM1ORWXY/LB1D1

Departure

Time N/A
Airport Hong Kong International Airport (VHHH)

Arrival

Time 2026-05-04 03:42
Airport O.R. Tambo International Airport (FAOR)
Time Latitude Longitude Altitude Speed Heading
2026-05-04 03:16 -25.49102 29.72302 39993 ft 429 kts 270°
2026-05-04 03:16 -25.49022 29.68993 39670 ft 428 kts 270°
2026-05-04 03:17 -25.48942 29.65743 39115 ft 428 kts 270°
2026-05-04 03:17 -25.48858 29.62448 38454 ft 429 kts 270°
2026-05-04 03:17 -25.48774 29.59147 37824 ft 428 kts 270°
2026-05-04 03:17 -25.48690 29.55865 37208 ft 427 kts 270°
2026-05-04 03:18 -25.48604 29.52574 36590 ft 428 kts 270°
2026-05-04 03:18 -25.48518 29.49278 35947 ft 430 kts 270°
2026-05-04 03:18 -25.48430 29.45958 35430 ft 431 kts 270°
2026-05-04 03:18 -25.48342 29.42649 34936 ft 429 kts 268°
2026-05-04 03:19 -25.48277 29.39358 34440 ft 426 kts 270°
2026-05-04 03:19 -25.48194 29.36083 33891 ft 424 kts 270°
2026-05-04 03:19 -25.48102 29.32836 33394 ft 420 kts 271°
2026-05-04 03:19 -25.48010 29.29614 32887 ft 417 kts 271°
2026-05-04 03:20 -25.47915 29.26413 32408 ft 415 kts 271°
2026-05-04 03:20 -25.47822 29.23236 31927 ft 412 kts 271°
2026-05-04 03:20 -25.47731 29.20071 31449 ft 410 kts 271°
2026-05-04 03:20 -25.47640 29.16928 30976 ft 407 kts 271°
2026-05-04 03:21 -25.47549 29.13804 30506 ft 405 kts 272°
2026-05-04 03:21 -25.47459 29.10694 29988 ft 403 kts 272°
2026-05-04 03:21 -25.47368 29.07609 29509 ft 400 kts 272°
2026-05-04 03:21 -25.47277 29.04540 29047 ft 397 kts 272°
2026-05-04 03:22 -25.47187 29.01530 28592 ft 395 kts 272°
2026-05-04 03:22 -25.47094 28.98509 28132 ft 392 kts 272°
2026-05-04 03:22 -25.47001 28.95503 27677 ft 389 kts 272°
2026-05-04 03:22 -25.46909 28.92520 27222 ft 387 kts 272°
2026-05-04 03:23 -25.46817 28.89556 26824 ft 382 kts 273°
2026-05-04 03:23 -25.46728 28.86658 26678 ft 371 kts 273°
2026-05-04 03:23 -25.46640 28.83853 26554 ft 359 kts 273°
2026-05-04 03:23 -25.46553 28.81134 26412 ft 348 kts 273°
2026-05-04 03:24 -25.46467 28.78496 26221 ft 339 kts 273°
2026-05-04 03:24 -25.46369 28.75890 25765 ft 339 kts 276°
2026-05-04 03:24 -25.46435 28.73291 25438 ft 340 kts 259°
2026-05-04 03:24 -25.47459 28.70950 25178 ft 342 kts 234°
2026-05-04 03:25 -25.49309 28.69281 24855 ft 349 kts 209°
2026-05-04 03:25 -25.51604 28.68381 24487 ft 352 kts 199°
2026-05-04 03:25 -25.53912 28.67493 24124 ft 350 kts 204°
2026-05-04 03:25 -25.56133 28.66385 23744 ft 349 kts 209°
2026-05-04 03:26 -25.58263 28.65117 23346 ft 346 kts 212°
2026-05-04 03:26 -25.60318 28.63768 22958 ft 342 kts 214°
2026-05-04 03:26 -25.62332 28.62372 22570 ft 340 kts 215°
2026-05-04 03:26 -25.64287 28.60976 22177 ft 337 kts 216°
2026-05-04 03:27 -25.66243 28.59556 21804 ft 335 kts 216°
2026-05-04 03:27 -25.68178 28.58139 21426 ft 333 kts 216°
2026-05-04 03:27 -25.70103 28.56721 21042 ft 331 kts 216°
2026-05-04 03:27 -25.72012 28.55312 20666 ft 328 kts 216°
2026-05-04 03:28 -25.73906 28.53912 20285 ft 326 kts 216°
2026-05-04 03:28 -25.75841 28.52594 19945 ft 327 kts 208°
2026-05-04 03:28 -25.77993 28.51756 19564 ft 329 kts 197°
2026-05-04 03:28 -25.80224 28.51169 19192 ft 328 kts 194°
2026-05-04 03:29 -25.82454 28.50626 18819 ft 327 kts 194°
2026-05-04 03:29 -25.84668 28.50083 18433 ft 325 kts 194°
2026-05-04 03:29 -25.86870 28.49536 18044 ft 323 kts 194°
2026-05-04 03:29 -25.89049 28.48991 17668 ft 320 kts 194°
2026-05-04 03:30 -25.91212 28.48446 17322 ft 317 kts 194°
2026-05-04 03:30 -25.93354 28.47904 16971 ft 314 kts 194°
2026-05-04 03:30 -25.95447 28.47374 16621 ft 312 kts 194°
2026-05-04 03:30 -25.97559 28.46837 16268 ft 310 kts 194°
2026-05-04 03:31 -25.99661 28.46304 15929 ft 309 kts 193°
2026-05-04 03:31 -26.01748 28.45774 15588 ft 307 kts 193°
2026-05-04 03:31 -26.03835 28.45244 15252 ft 306 kts 193°
2026-05-04 03:31 -26.05905 28.44719 14906 ft 304 kts 193°
2026-05-04 03:32 -26.07964 28.44195 14571 ft 302 kts 193°
2026-05-04 03:32 -26.10013 28.43675 14239 ft 301 kts 193°
2026-05-04 03:32 -26.12047 28.43158 13889 ft 299 kts 193°
2026-05-04 03:32 -26.14071 28.42645 13544 ft 297 kts 193°
2026-05-04 03:33 -26.16076 28.42136 13218 ft 295 kts 193°
2026-05-04 03:33 -26.18069 28.41630 12863 ft 293 kts 193°
2026-05-04 03:33 -26.20025 28.41132 12540 ft 290 kts 193°
2026-05-04 03:33 -26.21983 28.40635 12236 ft 287 kts 194°
2026-05-04 03:34 -26.23896 28.40145 12120 ft 277 kts 194°
2026-05-04 03:34 -26.25741 28.39673 11994 ft 268 kts 194°
2026-05-04 03:34 -26.26958 28.39362 11900 ft 262 kts 194°
2026-05-04 03:34 -26.29262 28.38771 11702 ft 252 kts 194°
2026-05-04 03:35 -26.30965 28.38333 11465 ft 250 kts 195°
2026-05-04 03:35 -26.32654 28.37900 11209 ft 248 kts 195°
2026-05-04 03:35 -26.34329 28.37469 10977 ft 245 kts 195°
2026-05-04 03:35 -26.35919 28.36855 10968 ft 248 kts 209°
2026-05-04 03:36 -26.36879 28.36134 10971 ft 254 kts 224°
2026-05-04 03:36 -26.38002 28.33916 10588 ft 247 kts 264°
2026-05-04 03:36 -26.37806 28.32031 10230 ft 246 kts 286°
2026-05-04 03:36 -26.37244 28.30239 10019 ft 244 kts 290°
2026-05-04 03:37 -26.36654 28.28494 9846 ft 243 kts 290°
2026-05-04 03:37 -26.36068 28.26732 9691 ft 239 kts 289°
2026-05-04 03:37 -26.35508 28.25022 9550 ft 232 kts 289°
2026-05-04 03:37 -26.34963 28.23334 9425 ft 231 kts 289°
2026-05-04 03:38 -26.34542 28.22216 9323 ft 231 kts 297°
2026-05-04 03:38 -26.33534 28.20867 9189 ft 233 kts 323°
2026-05-04 03:38 -26.31997 28.20301 9113 ft 236 kts 349°
2026-05-04 03:38 -26.30370 28.20353 9016 ft 229 kts
2026-05-04 03:39 -26.28921 28.20872 8683 ft 210 kts 16°
2026-05-04 03:39 -26.27569 28.21374 8388 ft 201 kts 12°
2026-05-04 03:39 -26.26288 28.21746 8254 ft 181 kts
2026-05-04 03:39 -26.25086 28.22068 7910 ft 172 kts
2026-05-04 03:40 -26.23980 28.22450 7520 ft 162 kts
2026-05-04 03:40 -26.22887 28.22796 7047 ft 165 kts
2026-05-04 03:40 -26.21792 28.23111 6696 ft 160 kts
2026-05-04 03:40 -26.20770 28.23478 6522 ft 146 kts
2026-05-04 03:41 -26.19831 28.23766 6293 ft 140 kts
2026-05-04 03:41 -26.18895 28.24018 6043 ft 136 kts
2026-05-04 03:41 -26.17960 28.24333 5941 ft 143 kts 11°
2026-05-04 03:41 -26.17000 28.24649 5712 ft 144 kts
2026-05-04 03:42 -26.16040 28.24947 5545 ft 142 kts 11°
2026-05-04 03:42 -26.15306 28.25174 5539 ft 70 kts 18°
2026-05-04 03:42 -26.14883 28.25305 5535 ft 56 kts 12°
2026-05-04 03:42 -26.14600 28.25303 5532 ft 13 kts 345°
2026-05-04 03:43 -26.14576 28.25297 5533 ft 0 kts 346°
2026-05-04 03:43 -26.14576 28.25296 5533 ft 0 kts 346°
2026-05-04 03:43 -26.14510 28.25255 5534 ft 15 kts 315°
2026-05-04 03:43 -26.14433 28.25171 5534 ft 17 kts 316°
2026-05-04 03:44 -26.14344 28.25076 5536 ft 19 kts 316°
2026-05-04 03:44 -26.14249 28.24972 5538 ft 20 kts 316°
2026-05-04 03:44 -26.14149 28.24864 5542 ft 20 kts 315°
2026-05-04 03:44 -26.14053 28.24757 5548 ft 19 kts 315°
2026-05-04 03:45 -26.13960 28.24656 5553 ft 18 kts 316°
2026-05-04 03:45 -26.13871 28.24558 5565 ft 18 kts 315°
2026-05-04 03:45 -26.13754 28.24434 5571 ft 34 kts 316°
2026-05-04 03:45 -26.13589 28.24255 5574 ft 32 kts 316°
2026-05-04 03:46 -26.13430 28.24080 5578 ft 32 kts 316°
2026-05-04 03:46 -26.13264 28.23902 5576 ft 34 kts 316°
2026-05-04 03:46 -26.13136 28.23704 5571 ft 27 kts 279°
2026-05-04 03:46 -26.13119 28.23528 5576 ft 16 kts 277°
2026-05-04 03:47 -26.13100 28.23475 5576 ft 8 kts 327°
2026-05-04 03:47 -26.13047 28.23471 5571 ft 0 kts
2026-05-04 03:47 -26.13029 28.23474 5572 ft 0 kts